Regional Weather Roundup
Issued by NWS Little Rock, AR

Home | Current Version | Previous Version | Graphics & Text | Print | Product List | Glossary On
Versions: 1 2 3 4 5 6 7 8 9 10 11 12 13 14 15 16 17 18 19 20 21 22 23 24 25 26 27 28 29 30 31 32 33 34 35 36 37 38 39 40 41 42 43 44 45 46 47 48 49 50
000
ASUS44 KLZK 281105
RWRLZK

WEATHER ROUNDUP FOR ARKANSAS
NATIONAL WEATHER SERVICE LITTLE ROCK AR
600 AM CDT THU AUG 28 2014

NOTE: "FAIR" INDICATES FEW OR NO CLOUDS BELOW 12,000 FEET WITH NO
SIGNIFICANT WEATHER AND/OR OBSTRUCTIONS TO VISIBILITY.

ARZ001-003-010-029-281200-
NORTHWEST ARKANSAS

CITY           SKY/WX    TMP DP  RH WIND       PRES   REMARKS
FAYETTEVILLE   MOCLDY    67  67 100 CALM      30.04S FOG
FORT SMITH     CLEAR     74  71  91 NE3       29.99S
HARRISON       CLEAR     68  68 100 CALM      30.05S FOG
BENTONVILLE    CLEAR     70  66  88 CALM      30.04S
ROGERS         CLEAR     71  67  87 SE5       30.05S
SILOAM SPGS    PTCLDY    70  63  78 E3        30.03F
HIGHFILL       CLEAR     66  64  93 CALM      30.03S
$$

ARZ004-005-016-281200-
NORTH CENTRAL ARKANSAS

CITY           SKY/WX    TMP DP  RH WIND       PRES   REMARKS
BATESVILLE     CLEAR     70  66  88 CALM      30.02S
FLIPPIN        CLEAR     68  63  83 CALM      30.03S
MTN HOME       CLEAR     70  67  90 CALM      30.03S
$$

ARZ040-041-281200-
WEST CENTRAL ARKANSAS

CITY           SKY/WX    TMP DP  RH WIND       PRES   REMARKS
MENA           CLOUDY    68  66  94 CALM      30.03S VSB 1/4
MOUNT IDA      CLEAR     67  65  93 CALM      30.00S FOG
$$

ARZ009-017-025-026-028-281200-
NORTHEAST ARKANSAS

CITY           SKY/WX    TMP DP  RH WIND       PRES   REMARKS
CORNING          N/A     73  73 100 CALM      30.03R FOG
JONESBORO      CLEAR     70  68  93 CALM      30.02R
NEWPORT        CLEAR     74  71  90 CALM      30.03R
WALNUT RIDGE   CLEAR     70  68  94 NE5       30.01S
BLYTHEVILLE    CLEAR     73  72  96 NE3       30.03R
$$

ARZ022-023-033-042-044-281200-
CENTRAL ARKANSAS

CITY           SKY/WX    TMP DP  RH WIND       PRES   REMARKS
LITTLE ROCK    CLEAR     73  69  87 CALM      30.01S
N LITTLE ROCK    N/A     72  70  93 CALM      30.01S
JACKSONVILLE   CLEAR     68  67  96 CALM      30.01S FOG
SEARCY         CLEAR     69  69 100 CALM      30.02S FOG
HOT SPRINGS    CLEAR     70  68  93 CALM      30.02R
RUSSELLVILLE   CLEAR     70  67  90 CALM      30.01S
CLINTON        FAIR      66  66 100 CALM      30.03S FOG
$$

ARZ036-281200-
EAST ARKANSAS

CITY           SKY/WX    TMP DP  RH WIND       PRES   REMARKS
WEST MEMPHIS   CLEAR     69  69 100 CALM      30.01S
$$

ARZ050-053-066-070-073-281200-
SOUTHWEST ARKANSAS

CITY           SKY/WX    TMP DP  RH WIND       PRES   REMARKS
ARKADELPHIA    FAIR      70  70 100 CALM      30.00S FOG
CAMDEN         CLEAR     66  64  94 CALM      29.99S FOG
TEXARKANA      CLEAR     69  67  93 CALM      29.98F
EL DORADO      CLEAR     68  67  96 CALM      29.99S
DE QUEEN       FOG       68  67  96 CALM      29.98S VSB 3/4
$$

ARZ056-057-069-281200-
SOUTHEAST ARKANSAS

CITY           SKY/WX    TMP DP  RH WIND       PRES   REMARKS
PINE BLUFF     CLEAR     69  67  93 CALM      30.01R
STUTTGART      CLEAR     73  66  78 CALM      30.02S
MONTICELLO     CLEAR     69  66  90 CALM      30.00S

$$





USA.gov is the U.S. government's official web portal to all federal, state and local government web resources and services.